KE5BM-13 Weather Reports


time (UTC)temp
C
wind
direction
speed
KPH
gust
KPH
rain 1hr
cm
rain 24hr
cm
rain mn
cm
humidity
%
barometer
mb
20260508020230 9 355 0.0 3.2 0.00 0.71 0.71 83 1006.6
20260508015730 9 59 0.0 0.0 0.00 0.71 0.71 86 1006.7
20260508015152 9 59 0.0 1.6 0.00 0.71 0.71 86 1006.6
20260508014646 9 59 0.0 1.6 0.00 0.71 0.71 86 1006.5
20260508014130 9 59 0.0 1.6 0.00 0.71 0.71 85 1006.4
20260508013630 9 59 0.0 1.6 0.00 0.71 0.71 85 1006.2
20260508013121 9 59 0.0 1.6 0.00 0.71 0.71 84 1006.3
20260508012609 9 59 0.0 1.6 0.00 0.71 0.71 84 1006.1
20260508012103 9 59 0.0 1.6 0.00 0.71 0.71 84 1006.2
20260508011602 9 59 0.0 1.6 0.00 0.74 0.71 83 1006.1
20260508011102 9 59 0.0 3.2 0.00 0.74 0.71 82 1005.9
20260508010556 9 59 1.6 6.4 0.00 0.74 0.71 81 1005.8
20260508010043 10 71 1.6 6.4 0.00 0.74 0.71 81 1005.8
20260508005544 10 39 0.0 4.8 0.00 0.74 0.71 80 1006.0
20260508005030 10 229 0.0 0.0 0.00 0.76 0.71 79 1005.9
20260508004524 10 269 0.0 0.0 0.00 0.76 0.71 79 1005.9
20260508004006 10 269 0.0 0.0 0.00 0.81 0.71 78 1005.7
20260508003504 10 269 0.0 0.0 0.00 0.86 0.71 77 1005.5
20260508003006 10 269 0.0 0.0 0.00 0.94 0.71 75 1005.2
20260508002454 11 269 0.0 0.0 0.00 1.02 0.71 75 1005.1
20260508001955 11 269 0.0 0.0 0.00 1.09 0.71 73 1005.3
20260508001436 11 269 0.0 1.6 0.00 1.14 0.71 72 1005.3
20260508000412 12 269 0.0 3.2 0.00 1.22 0.71 69 1005.1
20260507235904 12 269 0.0 3.2 0.00 1.22 0.71 68 1005.1
20260507235400 12 269 0.0 3.2 0.00 1.24 0.71 66 1005.1
20260507234843 12 269 0.0 1.6 0.00 1.24 0.71 65 1005.2
20260507234342 12 269 1.6 6.4 0.00 1.27 0.71 65 1005.2
20260507233842 13 273 1.6 6.4 0.00 1.27 0.71 63 1005.2
20260507233343 13 229 1.6 6.4 0.00 1.30 0.71 64 1005.2
20260507232838 13 165 1.6 6.4 0.00 1.30 0.71 63 1005.1
20260507232332 13 205 1.6 6.4 0.00 1.32 0.71 64 1005.2
20260507231823 13 138 1.6 6.4 0.00 1.35 0.71 64 1005.1
20260507231318 13 173 1.6 6.4 0.00 1.42 0.71 64 1004.9
20260507230820 13 211 1.6 6.4 0.00 1.45 0.71 64 1004.9
20260507230244 13 159 1.6 8.0 0.00 1.45 0.71 63 1004.8
20260507225738 13 159 1.6 8.0 0.00 1.47 0.71 60 1004.9
20260507225238 14 238 3.2 9.7 0.00 1.52 0.71 60 1004.9
20260507224739 14 194 3.2 9.7 0.00 1.55 0.71 60 1004.8
20260507224236 14 196 1.6 8.0 0.00 1.55 0.71 62 1004.8
20260507223728 14 202 3.2 8.0 0.00 1.55 0.71 65 1004.7
20260507223226 14 101 3.2 9.7 0.00 1.55 0.71 64 1004.7
20260507222725 15 203 3.2 11.3 0.00 1.55 0.71 62 1004.6
20260507222226 15 180 4.8 11.3 0.00 1.55 0.71 62 1004.6
20260507221726 15 136 4.8 11.3 0.00 1.55 0.71 62 1004.7
20260507221222 15 222 4.8 11.3 0.00 1.55 0.71 62 1004.8
20260507220723 15 163 4.8 11.3 0.00 1.55 0.71 63 1004.7
20260507220222 15 249 6.4 11.3 0.00 1.55 0.71 62 1004.7
20260507215722 15 163 4.8 9.7 0.00 1.55 0.71 61 1004.6
20260507215148 16 210 4.8 14.5 0.00 1.55 0.71 63 1004.6
20260507214649 15 156 4.8 14.5 0.00 1.55 0.71 62 1004.5
20260507214126 15 182 6.4 16.1 0.00 1.55 0.71 64 1004.4
20260507213624 15 196 4.8 16.1 0.00 1.55 0.71 64 1004.5
20260507213123 15 176 4.8 11.3 0.00 1.55 0.71 69 1004.5
20260507212622 15 246 6.4 11.3 0.00 1.55 0.71 70 1004.6
20260507212124 15 163 4.8 11.3 0.00 1.55 0.71 72 1004.4
20260507211622 15 139 4.8 16.1 0.00 1.55 0.71 73 1004.4
20260507211124 15 189 4.8 16.1 0.00 1.55 0.71 76 1004.3
20260507210624 14 145 4.8 11.3 0.00 1.55 0.71 76 1004.4
20260507210123 14 156 3.2 9.7 0.00 1.55 0.71 77 1004.5
20260507205624 14 157 3.2 8.0 0.00 1.55 0.71 74 1004.5
20260507205121 14 184 3.2 9.7 0.00 1.55 0.71 73 1004.5
20260507204621 14 307 3.2 9.7 0.00 1.55 0.71 76 1004.5
20260507204121 14 222 4.8 14.5 0.00 1.55 0.71 78 1004.4
20260507203622 15 134 4.8 14.5 0.00 1.55 0.71 77 1004.5
20260507203118 15 152 4.8 12.9 0.00 1.55 0.71 75 1004.5
20260507202619 15 173 4.8 12.9 0.00 1.55 0.71 76 1004.4
20260507202119 15 155 4.8 12.9 0.00 1.55 0.71 76 1004.3
20260507201619 15 158 6.4 12.9 0.00 1.55 0.71 76 1004.4
20260507201116 15 198 6.4 12.9 0.00 1.55 0.71 76 1004.3
20260507200612 15 144 6.4 12.9 0.00 1.55 0.71 77 1004.3
20260507200114 15 163 6.4 12.9 0.00 1.55 0.71 76 1004.4
20260507195611 15 300 6.4 17.7 0.00 1.55 0.71 75 1004.4
20260507195113 15 175 6.4 17.7 0.00 1.55 0.71 73 1004.6
20260507194611 15 183 6.4 16.1 0.00 1.55 0.71 74 1004.7
20260507194111 15 161 6.4 17.7 0.00 1.55 0.71 71 1004.7
20260507193612 15 163 6.4 17.7 0.00 1.55 0.71 73 1004.8
20260507193108 15 159 4.8 11.3 0.00 1.55 0.71 73 1004.8
20260507192608 15 188 6.4 12.9 0.00 1.55 0.71 71 1005.0
20260507192105 15 165 4.8 12.9 0.00 1.55 0.71 73 1005.0
20260507191606 15 252 6.4 12.9 0.00 1.55 0.71 72 1004.9
20260507191106 15 157 6.4 12.9 0.00 1.55 0.71 72 1005.0
20260507190605 15 180 4.8 11.3 0.00 1.55 0.71 73 1005.2
20260507185605 15 154 6.4 14.5 0.00 1.55 0.71 74 1005.3
20260507185103 15 168 6.4 14.5 0.00 1.55 0.71 76 1005.3
20260507184602 14 161 6.4 12.9 0.00 1.55 0.71 75 1005.4
20260507184102 14 162 6.4 14.5 0.00 1.55 0.71 73 1005.5
20260507183552 14 141 6.4 14.5 0.00 1.55 0.71 75 1005.5
20260507183052 15 144 6.4 12.9 0.00 1.55 0.71 75 1005.6
20260507182551 14 181 4.8 11.3 0.00 1.55 0.71 75 1005.6
20260507182050 14 170 4.8 11.3 0.00 1.55 0.71 76 1005.6
20260507181542 14 165 4.8 12.9 0.00 1.55 0.71 75 1005.6
20260507181042 14 277 4.8 12.9 0.00 1.55 0.71 75 1005.7
20260507180542 15 158 4.8 9.7 0.00 1.55 0.71 72 1005.7
20260507180043 15 171 3.2 9.7 0.00 1.55 0.71 71 1005.7
20260507175544 15 337 3.2 8.0 0.00 1.55 0.71 63 1005.9
20260507175037 16 244 3.2 9.7 0.00 1.55 0.71 61 1006.0
20260507174538 16 284 1.6 9.7 0.00 1.55 0.71 62 1006.0
20260507174038 16 38 1.6 8.0 0.00 1.55 0.71 61 1006.0
20260507173538 15 61 1.6 9.7 0.00 1.55 0.71 61 1006.1
20260507173028 15 321 3.2 9.7 0.00 1.55 0.71 66 1006.1
20260507172527 15 286 3.2 8.0 0.00 1.55 0.71 61 1006.0
20260507172024 15 22 1.6 8.0 0.00 1.55 0.71 67 1006.1
20260507171524 14 63 1.6 8.0 0.00 1.55 0.71 70 1006.1
20260507171023 13 329 3.2 8.0 0.00 1.55 0.71 68 1006.2
20260507170524 13 22 3.2 11.3 0.00 1.55 0.71 68 1006.3
20260507170024 13 52 4.8 11.3 0.00 1.55 0.71 70 1006.4
20260507165517 13 34 4.8 11.3 0.00 1.55 0.71 68 1006.5
20260507165010 13 25 3.2 11.3 0.00 1.55 0.71 69 1006.6
20260507164511 13 292 4.8 11.3 0.00 1.55 0.71 70 1006.5
20260507164009 13 41 4.8 16.1 0.00 1.55 0.71 71 1006.5
20260507163508 13 13 4.8 16.1 0.00 1.55 0.71 71 1006.4
20260507163008 12 265 4.8 11.3 0.00 1.55 0.71 73 1006.5
20260507162508 13 5 3.2 11.3 0.00 1.55 0.71 72 1006.5
20260507162008 12 10 3.2 11.3 0.00 1.55 0.71 74 1006.6
20260507161507 12 308 3.2 11.3 0.00 1.55 0.71 74 1006.7
20260507161005 12 39 3.2 11.3 0.00 1.55 0.71 75 1006.8
20260507160507 12 64 3.2 12.9 0.00 1.55 0.71 78 1006.6
20260507160006 12 303 4.8 12.9 0.00 1.55 0.71 76 1006.8
20260507155505 12 324 3.2 9.7 0.00 1.55 0.71 78 1006.9
20260507155004 12 345 4.8 11.3 0.00 1.55 0.71 77 1007.0
20260507154504 11 22 4.8 11.3 0.00 1.55 0.71 80 1006.9
20260507154004 11 22 4.8 9.7 0.00 1.55 0.71 81 1007.2
20260507153505 11 312 4.8 12.9 0.00 1.55 0.71 82 1007.2
20260507153005 11 333 4.8 12.9 0.00 1.55 0.71 83 1007.0
20260507152503 11 322 3.2 12.9 0.00 1.55 0.71 84 1007.3
20260507152005 11 296 4.8 12.9 0.00 1.55 0.71 87 1007.2
20260507151455 10 347 4.8 12.9 0.00 1.55 0.71 87 1007.1
20260507150952 10 355 3.2 11.3 0.00 1.55 0.71 88 1007.0
20260507150453 10 59 3.2 8.0 0.00 1.55 0.71 90 1007.0
20260507145950 10 355 1.6 6.4 0.00 1.55 0.71 91 1006.9
20260507145452 10 309 1.6 6.4 0.00 1.55 0.71 91 1006.9
20260507144952 10 28 3.2 6.4 0.00 1.55 0.71 91 1007.2
20260507144453 9 336 3.2 6.4 0.00 1.55 0.71 91 1007.4
20260507143949 9 319 3.2 8.0 0.00 1.55 0.71 92 1007.2
20260507143445 9 330 3.2 8.0 0.00 1.55 0.71 93 1007.2
20260507142944 9 305 3.2 6.4 0.00 1.55 0.71 94 1007.2
20260507142444 9 45 1.6 6.4 0.00 1.55 0.71 94 1007.2
20260507141943 9 351 1.6 4.8 0.00 1.55 0.71 95 1007.4
20260507141441 9 340 1.6 4.8 0.00 1.55 0.71 95 1007.2
20260507140941 8 9 3.2 6.4 0.00 1.55 0.71 95 1007.2
20260507140441 8 5 3.2 9.7 0.00 1.55 0.71 95 1007.1
20260507135942 8 5 3.2 9.7 0.00 1.55 0.71 95 1007.1
20260507135441 8 342 4.8 9.7 0.03 1.55 0.71 95 1007.1
20260507134934 8 304 3.2 8.0 0.03 1.55 0.71 96 1007.1
20260507134334 8 5 3.2 8.0 0.05 1.55 0.71 96 1007.1
20260507133834 8 11 4.8 8.0 0.05 1.55 0.71 96 1006.9
20260507133336 8 336 3.2 8.0 0.05 1.55 0.71 96 1006.7
20260507132835 8 306 1.6 8.0 0.05 1.55 0.71 96 1006.9
20260507132337 8 23 3.2 8.0 0.05 1.55 0.71 96 1006.8
20260507131814 8 5 3.2 4.8 0.05 1.55 0.71 96 1006.9
20260507131309 8 41 3.2 6.4 0.05 1.55 0.71 96 1007.0
20260507130804 8 304 3.2 11.3 0.05 1.55 0.71 96 1007.3
20260507130305 8 355 3.2 11.3 0.05 1.55 0.71 96 1007.4
20260507125306 8 351 3.2 9.7 0.05 1.52 0.69 96 1007.3
20260507124806 8 347 3.2 6.4 0.05 1.52 0.69 96 1007.1
20260507124255 8 355 3.2 8.0 0.03 1.50 0.66 96 1007.2
20260507123732 8 348 3.2 8.0 0.03 1.50 0.66 96 1007.2
20260507123231 8 331 3.2 8.0 0.03 1.50 0.66 96 1007.0
20260507122722 8 44 3.2 8.0 0.03 1.50 0.66 96 1006.9
20260507122221 8 13 3.2 9.7 0.03 1.50 0.66 96 1007.2
20260507121720 8 13 4.8 9.7 0.03 1.50 0.66 96 1007.2
20260507121220 8 329 4.8 9.7 0.03 1.50 0.66 96 1007.1
20260507120722 8 22 4.8 9.7 0.05 1.50 0.66 96 1007.1
20260507120224 8 14 3.2 9.7 0.08 1.50 0.66 96 1006.9
20260507115721 9 315 4.8 9.7 0.10 1.50 0.66 96 1006.9
20260507115220 9 31 4.8 12.9 0.08 1.47 0.64 96 1007.2
20260507114720 9 44 4.8 12.9 0.08 1.47 0.64 96 1007.4
20260507114220 8 321 4.8 14.5 0.08 1.47 0.64 96 1007.6
20260507113718 8 5 4.8 14.5 0.08 1.47 0.64 96 1007.3
20260507113220 8 336 4.8 11.3 0.08 1.47 0.64 96 1007.0
20260507112718 8 22 4.8 9.7 0.08 1.47 0.64 96 1006.5
20260507112216 9 47 4.8 11.3 0.08 1.47 0.64 96 1006.6
20260507111718 9 32 4.8 11.3 0.08 1.47 0.64 96 1006.5
20260507111215 9 0 4.8 12.9 0.10 1.47 0.64 96 1006.5
20260507110714 9 51 4.8 12.9 0.10 1.45 0.61 96 1006.4
20260507110216 9 31 4.8 11.3 0.08 1.42 0.58 97 1006.4
20260507105711 9 306 4.8 12.9 0.08 1.40 0.56 97 1006.8
20260507105211 9 30 4.8 12.9 0.10 1.40 0.56 97 1006.6
20260507104659 9 32 4.8 16.1 0.15 1.40 0.56 97 1006.3
20260507104159 9 348 6.4 16.1 0.36 1.40 0.56 97 1006.3
20260507103700 9 5 6.4 17.7 0.38 1.40 0.56 97 1006.3
20260507103158 9 0 6.4 17.7 0.41 1.40 0.56 97 1006.1
20260507102656 9 355 6.4 12.9 0.43 1.40 0.56 97 1006.0
20260507102157 9 17 6.4 12.9 0.46 1.40 0.56 97 1006.1
20260507101657 9 39 4.8 11.3 0.48 1.40 0.56 97 1006.0
20260507101154 9 11 6.4 14.5 0.46 1.37 0.53 97 1006.1
20260507100654 9 304 6.4 14.5 0.43 1.35 0.53 97 1006.1
20260507100154 9 30 4.8 16.1 0.41 1.32 0.51 97 1005.5
20260507095652 9 5 6.4 20.9 0.43 1.32 0.48 97 1005.6
20260507095152 10 355 8.0 20.9 0.46 1.30 0.46 96 1005.4
20260507094653 10 28 6.4 17.7 0.41 1.24 0.43 96 1005.5
20260507094152 10 30 6.4 17.7 0.20 1.04 0.25 96 1006.1
20260507093650 11 323 6.4 12.9 0.18 1.02 0.18 96 1006.0
20260507093152 11 24 4.8 14.5 0.15 0.99 0.15 97 1005.3
20260507092653 11 5 3.2 14.5 0.13 0.97 0.13 97 1005.4
20260507092151 12 19 1.6 8.0 0.10 0.94 0.10 98 1005.5
20260507091651 11 327 1.6 4.8 0.08 0.91 0.08 98 1005.3
20260507091151 11 30 1.6 6.4 0.08 0.91 0.08 98 1005.3
20260507090647 11 302 1.6 6.4 0.08 0.91 0.08 98 1005.5
20260507090148 11 290 1.6 8.0 0.08 0.91 0.08 97 1005.6
20260507085645 11 325 3.2 9.7 0.05 0.89 0.05 97 1005.7
20260507085143 11 271 3.2 11.3 0.00 0.84 0.00 97 1006.1
20260507084643 11 279 3.2 11.3 0.00 0.84 0.00 97 1005.9
20260507084137 11 298 3.2 8.0 0.00 0.84 0.00 97 1005.8
20260507083635 11 229 1.6 8.0 0.00 0.84 0.00 97 1005.4
20260507083134 11 223 1.6 6.4 0.00 0.84 0.00 97 1005.3
20260507082636 11 229 1.6 8.0 0.00 0.84 0.00 97 1004.9
20260507082135 11 149 3.2 8.0 0.00 0.84 0.00 97 1004.9
20260507081633 11 179 3.2 6.4 0.00 0.84 0.00 97 1004.8
20260507081134 11 151 1.6 8.0 0.00 0.84 0.00 97 1004.9
20260507080631 12 199 1.6 8.0 0.00 0.84 0.00 97 1004.8
20260507080130 12 172 1.6 8.0 0.00 0.84 0.00 97 1004.8
20260507075622 12 161 0.0 6.4 0.00 0.84 0.00 97 1004.9
20260507075124 12 161 1.6 6.4 0.00 0.84 0.00 97 1004.9
20260507074608 12 164 1.6 6.4 0.00 0.84 0.00 97 1004.9
20260507074051 12 157 1.6 6.4 0.00 0.84 0.00 97 1004.9
20260507073553 12 170 1.6 6.4 0.00 0.84 0.00 97 1005.0
20260507073034 12 199 1.6 6.4 0.00 0.84 0.00 97 1005.2
20260507072536 12 159 1.6 6.4 0.00 0.84 0.00 97 1005.2
20260507072029 12 200 1.6 6.4 0.00 0.84 0.00 97 1005.4
20260507071530 12 169 1.6 8.0 0.00 0.84 0.00 97 1005.4
20260507071022 12 169 1.6 8.0 0.00 0.84 0.00 97 1005.7
20260507070515 12 169 0.0 6.4 0.00 0.84 0.00 97 1005.8
20260507070014 12 123 0.0 1.6 0.00 0.84 0.00 97 1005.5
20260507065507 12 84 0.0 1.6 0.00 0.84 0.00 97 1005.2
20260507065003 12 84 0.0 3.2 0.00 0.84 0.00 97 1005.3
20260507064503 12 84 1.6 6.4 0.00 0.84 0.00 97 1005.1
20260507063957 12 177 1.6 6.4 0.00 0.84 0.00 97 1005.5
20260507063457 12 254 1.6 6.4 0.00 0.84 0.00 97 1005.5
20260507062950 12 230 1.6 8.0 0.00 0.84 0.00 97 1005.5
20260507062449 12 190 3.2 8.0 0.00 0.84 0.00 97 1005.5
20260507061946 12 190 3.2 11.3 0.00 0.84 0.00 97 1005.6
20260507061444 12 257 3.2 11.3 0.00 0.84 0.00 97 1005.6
20260507060947 12 259 3.2 9.7 0.00 0.84 0.00 97 1005.6
20260507060443 12 219 4.8 14.5 0.00 0.84 0.00 97 1005.5
20260507055943 12 235 4.8 16.1 0.00 0.84 0.00 97 1005.5
20260507055442 12 171 4.8 16.1 0.00 0.84 0.00 97 1005.6
20260507054943 12 203 4.8 12.9 0.00 0.84 0.00 97 1005.8
20260507054432 12 230 4.8 16.1 0.00 0.84 0.00 97 1005.9
20260507053931 12 194 3.2 16.1 0.00 0.84 0.00 97 1006.0
20260507053430 12 196 4.8 16.1 0.00 0.84 0.00 97 1006.0
20260507052930 12 98 4.8 16.1 0.00 0.84 0.00 97 1006.2
20260507052431 12 246 4.8 16.1 0.00 0.84 0.00 97 1006.3
20260507051929 12 208 4.8 16.1 0.00 0.84 0.00 97 1006.5
20260507051428 12 245 6.4 16.1 0.00 0.84 0.00 97 1006.5
20260507050928 13 157 4.8 14.5 0.00 0.84 0.00 97 1006.5
20260507050426 13 227 4.8 12.9 0.00 0.84 0.00 97 1006.4
20260507045926 13 0 4.8 12.9 0.00 0.84 0.00 97 1006.4
20260507045427 13 279 4.8 12.9 0.00 0.84 0.00 97 1006.4
20260507044925 13 294 4.8 17.7 0.00 0.84 0.00 97 1006.3
20260507044425 13 207 6.4 17.7 0.00 0.84 0.00 97 1006.3
20260507043924 13 119 4.8 17.7 0.00 0.84 0.00 97 1006.4
20260507043426 13 263 4.8 16.1 0.00 0.84 0.00 97 1006.4
20260507042926 13 204 4.8 14.5 0.00 0.84 0.00 97 1006.5
20260507042424 13 253 4.8 14.5 0.00 0.84 0.00 97 1006.6
20260507041924 13 221 4.8 14.5 0.00 0.84 0.00 97 1006.7
20260507041424 13 247 4.8 16.1 0.00 0.84 0.00 97 1006.8
20260507040925 13 305 6.4 16.1 0.00 0.84 0.00 97 1006.7
20260507040425 13 232 6.4 20.9 0.00 0.84 0.00 97 1006.8
20260507035923 13 199 6.4 20.9 0.00 0.84 0.84 97 1006.6
20260507035422 13 231 6.4 17.7 0.00 0.84 0.84 97 1006.7
20260507034921 13 157 6.4 17.7 0.00 0.84 0.84 97 1006.7
20260507034423 13 180 6.4 17.7 0.00 0.84 0.84 97 1006.7
20260507033925 13 152 6.4 19.3 0.00 0.84 0.84 97 1006.8
20260507033419 13 203 6.4 19.3 0.00 0.84 0.84 97 1006.9
20260507032920 13 293 8.0 22.5 0.00 0.84 0.84 97 1006.7
20260507032416 13 222 8.0 22.5 0.00 0.84 0.84 97 1006.6
20260507031917 13 271 8.0 20.9 0.00 0.84 0.84 97 1006.4
20260507031420 13 159 6.4 20.9 0.00 0.84 0.84 97 1006.5
20260507030917 13 166 6.4 19.3 0.00 0.84 0.84 97 1006.5